Albion, NE

11:36 AM CST on November 15, 2019 (GMT -0600)
Albion Municipal

Weather History for KBVN - October, 2019

Change the Weather History Date:

Wednesday, October 23, 2019

  Actual Average (KOFK) Record (KOFK)
Temperature  
Mean Temperature 46 °F -  
Max Temperature 57 °F 59 °F 87 °F (1927)
Min Temperature 34 °F 37 °F 17 °F (1981)
Degree Days  
Heating Degree Days 20    
Moisture  
Dew Point 37 °F    
Average Humidity 74    
Maximum Humidity 95    
Minimum Humidity 48    
Precipitation  
Precipitation 0.00 in - - ()
Sea Level Pressure  
Sea Level Pressure 29.93 in    
Wind  
Wind Speed 7 mph ()    
Max Wind Speed 25 mph    
Max Gust Speed 33 mph    
Visibility 10.0 miles    
Events Rain    
Averages and records for this station are not official NWS values.
T = Trace of Precipitation, MM = Missing Value Source: Averaged Metar Reports

Daily Weather History Graph

Daily Weather History Graph

Search for Another Location

Airport or City:

Astronomy

Oct. 23, 2019 Rise Set
Actual Time 7:53 AM CDT 6:39 PM CDT
Civil Twilight 7:25 AM CDT 7:07 PM CDT
Nautical Twilight 6:52 AM CDT 7:39 PM CDT
Astronomical Twilight 6:20 AM CDT 8:11 PM CDT
Moon 2:07 AM CDT (10/23) 4:36 PM CDT (10/23)
Length of Visible Light 11h 42m
Length of Day
10h 45m
Waning Crescent, 26% of the Moon is Illuminated
Oct 23
Waning Crescent
Oct 27
New
Nov 4
First Quarter
Nov 12
Full
Nov 19
Last Quarter

Hourly Weather History & Observations

Time (CDT) Temp. Windchill Dew Point Humidity Pressure Visibility Wind Dir Wind Speed Gust Speed Precip Events Conditions
12:15 AM 47.8 °F - 33.6 °F 58% 29.84 in 10.0 mi WNW 3.5 mph - N/A   Overcast
12:35 AM 48.4 °F - 33.3 °F 56% 29.82 in 10.0 mi Calm Calm - N/A   Light Drizzle
12:55 AM 48.0 °F - 33.1 °F 56% 29.81 in 10.0 mi Calm Calm - N/A   Overcast
1:15 AM 47.8 °F - 34.7 °F 60% 29.80 in 10.0 mi Calm Calm - N/A   Overcast
1:35 AM 48.0 °F - 33.8 °F 58% 29.79 in 10.0 mi Calm Calm - N/A   Overcast
1:55 AM 47.7 °F - 34.2 °F 60% 29.79 in 10.0 mi Calm Calm - N/A   Overcast
2:15 AM 45.7 °F - 35.8 °F 68% 29.79 in 10.0 mi Calm Calm - N/A   Overcast
2:35 AM 43.0 °F - 36.1 °F 77% 29.79 in 10.0 mi Calm Calm - N/A   Overcast
2:55 AM 43.0 °F - 37.2 °F 80% 29.79 in 10.0 mi Calm Calm - N/A   Overcast
3:15 AM 41.7 °F - 36.5 °F 82% 29.77 in 10.0 mi Calm Calm - N/A   Scattered Clouds
3:35 AM 39.2 °F - 34.7 °F 84% 29.77 in 10.0 mi Calm Calm - N/A   Clear
3:55 AM 36.9 °F 34.3 °F 34.2 °F 90% 29.76 in 10.0 mi ESE 3.5 mph - N/A   Clear
4:15 AM 40.8 °F 38.8 °F 34.7 °F 79% 29.76 in 10.0 mi SE 3.5 mph - N/A   Clear
4:35 AM 36.9 °F - 34.0 °F 89% 29.76 in 10.0 mi Calm Calm - N/A   Clear
4:55 AM 40.1 °F - 34.7 °F 81% 29.76 in 10.0 mi Calm Calm - N/A   Clear
5:15 AM 37.8 °F - 34.5 °F 88% 29.77 in 10.0 mi Calm Calm - N/A   Clear
5:35 AM 37.8 °F - 34.5 °F 88% 29.77 in 10.0 mi Calm Calm - N/A   Clear
5:55 AM 36.1 °F - 33.8 °F 91% 29.77 in 10.0 mi Calm Calm - N/A   Mostly Cloudy
6:15 AM 35.8 °F - 33.8 °F 92% 29.77 in 10.0 mi Calm Calm - N/A   Mostly Cloudy
6:35 AM 35.1 °F - 33.6 °F 94% 29.76 in 10.0 mi Calm Calm - N/A   Scattered Clouds
6:55 AM 34.9 °F - 33.6 °F 95% 29.76 in 10.0 mi Calm Calm - N/A   Scattered Clouds
7:15 AM 35.6 °F - 33.6 °F 92% 29.76 in 10.0 mi Calm Calm - N/A   Mostly Cloudy
7:35 AM 37.8 °F 33.3 °F 36.1 °F 94% 29.78 in 10.0 mi NW 5.8 mph - N/A   Overcast
7:55 AM 41.4 °F 36.2 °F 38.3 °F 89% 29.77 in 10.0 mi WNW 8.1 mph - N/A   Overcast
8:15 AM 45.0 °F 39.7 °F 40.8 °F 85% 29.79 in 10.0 mi NW 10.4 mph - N/A   Mostly Cloudy
8:35 AM 46.4 °F 40.7 °F 41.9 °F 84% 29.79 in 10.0 mi NW 12.7 mph - N/A   Overcast
8:55 AM 47.3 °F - 42.8 °F 84% 29.80 in 10.0 mi NW 16.1 mph - N/A   Mostly Cloudy
9:35 AM 48.2 °F - 43.2 °F 83% 29.82 in 10.0 mi NW 13.8 mph 20.7 mph N/A   Scattered Clouds
9:55 AM 48.7 °F - 43.2 °F 81% 29.83 in 10.0 mi NW 12.7 mph - N/A   Clear
10:15 AM 50.0 °F - 43.7 °F 79% 29.84 in 10.0 mi NW 19.6 mph 24.2 mph N/A   Scattered Clouds
10:35 AM 51.1 °F - 43.0 °F 74% 29.85 in 10.0 mi NNW 25.3 mph - N/A   Scattered Clouds
10:55 AM 52.3 °F - 42.8 °F 70% 29.86 in 10.0 mi NW 20.7 mph 28.8 mph N/A   Scattered Clouds
11:15 AM 52.9 °F - 42.4 °F 68% 29.87 in 10.0 mi NW 20.7 mph 31.1 mph N/A   Scattered Clouds
11:35 AM 53.6 °F - 42.4 °F 66% 29.88 in 10.0 mi NW 19.6 mph 32.2 mph N/A   Scattered Clouds
11:55 AM 54.1 °F - 42.1 °F 64% 29.88 in 10.0 mi NNW 21.9 mph 27.6 mph N/A   Scattered Clouds
12:15 PM 55.4 °F - 41.5 °F 60% 29.89 in 10.0 mi NNW 17.3 mph 24.2 mph N/A   Scattered Clouds
12:35 PM 57.0 °F - 41.0 °F 55% 29.89 in 10.0 mi NW 19.6 mph 27.6 mph N/A   Scattered Clouds
12:55 PM 55.8 °F - 40.5 °F 56% 29.89 in 10.0 mi NW 19.6 mph 25.3 mph N/A   Mostly Cloudy
1:15 PM 57.0 °F - 40.3 °F 54% 29.90 in 10.0 mi NNW 19.6 mph 25.3 mph N/A   Mostly Cloudy
1:35 PM 57.2 °F - 39.6 °F 52% 29.90 in 10.0 mi NNW 20.7 mph 27.6 mph N/A   Mostly Cloudy
1:55 PM 56.1 °F - 38.5 °F 52% 29.90 in 10.0 mi NW 15.0 mph 29.9 mph N/A   Mostly Cloudy
2:15 PM 56.7 °F - 39.2 °F 52% 29.90 in 10.0 mi NNW 16.1 mph 19.6 mph N/A   Mostly Cloudy
2:35 PM 54.7 °F - 38.7 °F 55% 29.91 in 10.0 mi NNW 16.1 mph 23.0 mph N/A   Overcast
2:55 PM 57.6 °F - 39.7 °F 51% 29.91 in 10.0 mi NNW 13.8 mph 24.2 mph N/A   Mostly Cloudy
3:15 PM 55.8 °F - 38.1 °F 52% 29.92 in 10.0 mi NW 18.4 mph 26.5 mph N/A   Mostly Cloudy
3:30 PM 55.9 °F - 36.5 °F 48% 29.92 in 10.0 mi NW 20.7 mph 27.6 mph N/A   Mostly Cloudy
3:55 PM 55.4 °F - 37.6 °F 51% 29.94 in 10.0 mi NNW 21.9 mph 28.8 mph N/A   Overcast
4:15 PM 54.7 °F - 38.5 °F 54% 29.95 in 10.0 mi NNW 15.0 mph 28.8 mph N/A   Overcast
4:35 PM 53.6 °F - 39.4 °F 59% 29.96 in 10.0 mi NNW 16.1 mph 23.0 mph N/A   Overcast
4:55 PM 52.9 °F - 38.7 °F 58% 29.98 in 10.0 mi NNW 16.1 mph 23.0 mph N/A   Overcast
5:15 PM 50.9 °F - 40.3 °F 67% 29.99 in 10.0 mi North 15.0 mph 19.6 mph N/A   Overcast
5:35 PM 50.2 °F - 40.6 °F 70% 30.02 in 10.0 mi NNW 10.4 mph - N/A   Overcast
5:55 PM 48.9 °F - 39.6 °F 70% 30.04 in 10.0 mi NNW 18.4 mph - N/A   Overcast
6:15 PM 48.0 °F - 39.2 °F 72% 30.06 in 10.0 mi North 11.5 mph 20.7 mph N/A   Overcast
6:35 PM 44.1 °F 36.8 °F 39.6 °F 84% 30.09 in 10.0 mi North 16.1 mph 29.9 mph N/A   Overcast
6:55 PM 41.0 °F 31.4 °F 36.5 °F 84% 30.12 in 10.0 mi North 21.9 mph 33.4 mph N/A   Overcast
7:15 PM 39.7 °F 29.5 °F 35.6 °F 85% 30.15 in 10.0 mi NNW 23.0 mph 29.9 mph N/A   Overcast
7:55 PM 37.9 °F 28.5 °F 33.3 °F 83% 30.19 in 10.0 mi North 17.3 mph 26.5 mph N/A   Overcast
8:15 PM 37.4 °F 29.3 °F 32.9 °F 84% 30.20 in 10.0 mi North 12.7 mph 26.5 mph N/A   Overcast
8:35 PM 37.4 °F 27.2 °F 32.9 °F 84% 30.20 in 10.0 mi NNW 19.6 mph 26.5 mph N/A   Overcast
8:55 PM 36.7 °F 27.2 °F 32.0 °F 83% 30.20 in 10.0 mi North 16.1 mph 25.3 mph N/A   Overcast
9:15 PM 35.8 °F 26.9 °F 32.0 °F 86% 30.20 in 10.0 mi NNW 13.8 mph 24.2 mph N/A   Mostly Cloudy
9:35 PM 35.6 °F 27.5 °F 32.0 °F 87% 30.22 in 10.0 mi NNW 11.5 mph 17.3 mph N/A   Mostly Cloudy
9:55 PM 35.1 °F 27.9 °F 32.0 °F 89% 30.25 in 10.0 mi NNW 9.2 mph - N/A   Scattered Clouds
10:15 PM 34.9 °F 26.6 °F 32.0 °F 89% 30.26 in 10.0 mi NNW 11.5 mph - N/A   Scattered Clouds
10:35 PM 34.7 °F 26.9 °F 32.0 °F 90% 30.27 in 10.0 mi NNW 10.4 mph - N/A   Clear
10:55 PM 34.9 °F 27.1 °F 32.0 °F 89% 30.28 in 10.0 mi NNW 10.4 mph - N/A   Clear
11:15 PM 35.6 °F 28.6 °F 32.2 °F 87% 30.30 in 10.0 mi NNW 9.2 mph - N/A   Mostly Cloudy
11:35 PM 36.9 °F 29.1 °F 32.2 °F 83% 30.32 in 10.0 mi NNW 11.5 mph 17.3 mph N/A   Overcast
11:55 PM 36.0 °F 27.1 °F 32.0 °F 86% 30.33 in 10.0 mi NNW 13.8 mph 20.7 mph N/A Rain Light Rain